Weather History for Taos, NM

Change the Weather History Date:

Thursday, May 15, 2014

  Actual Average Record
Temperature  
Mean Temperature 45 °F -  
Max Temperature 64 °F 70 °F 82 °F (2000)
Min Temperature 26 °F 35 °F 26 °F (1998)
Degree Days  
Heating Degree Days 20    
Moisture  
Dew Point 23 °F    
Average Humidity 44    
Maximum Humidity 80    
Minimum Humidity 19    
Precipitation  
Precipitation 0.00 in - - ()
Sea Level Pressure  
Sea Level Pressure 30.34 in    
Wind  
Wind Speed 5 mph (North)    
Max Wind Speed 14 mph    
Max Gust Speed 20 mph    
Visibility 10 miles    
Events      
Averages and records for this station are not official NWS values.
T = Trace of Precipitation, MM = Missing Value Source: NWS Daily Summary

Daily Weather History Graph

Daily Weather History Graph

Search for Another Location

Airport:

Trip Planner

Search our weather history database for the weather conditions in past years. The results will help you decide how hot, cold, wet, or windy it might be!

Date:

Astronomy

May. 15, 2014 Rise Set
Actual Time 5:55 AM MDT 8:02 PM MDT
Civil Twilight 5:27 AM MDT 8:31 PM MDT
Nautical Twilight 4:52 AM MDT 9:06 PM MDT
Astronomical Twilight 4:14 AM MDT 9:44 PM MDT
Moon 9:13 PM MDT (5/15) 6:44 AM MDT (5/15)
Length of Visible Light 15h 04m
Length of Day
14h 06m
Full, 99% of the Moon is Illuminated
May 15
Full
May 21
Last Quarter
May 28
New
Jun 5
First Quarter
Jun 12
Full

Hourly Weather History & Observations

Time (MDT) Temp. Windchill Dew Point Humidity Pressure Visibility Wind Dir Wind Speed Gust Speed Precip Events Conditions
12:15 AM 39.2 °F 35.0 °F 24.8 °F 56% 30.43 in 10.0 mi East 5.8 mph - N/A   Overcast
12:35 AM 37.4 °F 32.1 °F 26.6 °F 65% 30.42 in 10.0 mi East 6.9 mph - N/A   Mostly Cloudy
12:55 AM 37.4 °F 32.1 °F 26.6 °F 65% 30.42 in 10.0 mi East 6.9 mph - N/A   Scattered Clouds
1:15 AM 35.6 °F 29.9 °F 24.8 °F 65% 30.41 in 10.0 mi ENE 6.9 mph - N/A   Clear
1:35 AM 35.6 °F 29.9 °F 24.8 °F 65% 30.41 in 10.0 mi ENE 6.9 mph - N/A   Clear
1:55 AM 35.6 °F 29.9 °F 24.8 °F 65% 30.40 in 10.0 mi ENE 6.9 mph - N/A   Clear
2:15 AM 35.6 °F 31.7 °F 21.2 °F 56% 30.39 in 10.0 mi ENE 4.6 mph - N/A   Clear
2:35 AM 30.2 °F 26.7 °F 21.2 °F 69% 30.39 in 10.0 mi North 3.5 mph - N/A   Clear
2:55 AM 30.2 °F 23.4 °F 21.2 °F 69% 30.39 in 10.0 mi North 6.9 mph - N/A   Clear
3:15 AM 30.2 °F 23.4 °F 23.0 °F 75% 30.39 in 10.0 mi North 6.9 mph - N/A   Clear
3:35 AM 30.2 °F 24.3 °F 23.0 °F 75% 30.39 in 10.0 mi North 5.8 mph - N/A   Clear
3:55 AM 30.2 °F 24.3 °F 23.0 °F 75% 30.38 in 10.0 mi North 5.8 mph - N/A   Clear
4:15 AM 30.2 °F 22.6 °F 23.0 °F 75% 30.38 in 10.0 mi North 8.1 mph - N/A   Clear
4:35 AM 28.4 °F 20.4 °F 21.2 °F 74% 30.38 in 10.0 mi NNE 8.1 mph - N/A   Clear
4:55 AM 28.4 °F 22.2 °F 21.2 °F 74% 30.38 in 10.0 mi NE 5.8 mph - N/A   Clear
5:15 AM 30.2 °F - 21.2 °F 69% 30.37 in 10.0 mi Calm Calm - N/A   Clear
5:35 AM 30.2 °F - 21.2 °F 69% 30.38 in 10.0 mi Calm Calm - N/A   Clear
5:55 AM 28.4 °F 23.3 °F 21.2 °F 74% 30.39 in 10.0 mi North 4.6 mph - N/A   Clear
6:15 AM 26.6 °F - 21.2 °F 80% 30.39 in 10.0 mi Calm Calm - N/A   Clear
6:35 AM 28.4 °F - 23.0 °F 80% 30.39 in 10.0 mi Calm Calm - N/A   Clear
6:55 AM 30.2 °F - 24.8 °F 80% 30.39 in 10.0 mi Calm Calm - N/A   Clear
7:15 AM 33.8 °F 30.8 °F 26.6 °F 75% 30.39 in 10.0 mi ESE 3.5 mph - N/A   Clear
7:35 AM 35.6 °F - 24.8 °F 65% 30.39 in 10.0 mi Calm Calm - N/A   Clear
7:55 AM 37.4 °F - 24.8 °F 60% 30.39 in 10.0 mi Calm Calm - N/A   Clear
8:15 AM 41.0 °F - 24.8 °F 53% 30.40 in 10.0 mi Calm Calm - N/A   Clear
8:35 AM 42.8 °F - 24.8 °F 49% 30.39 in 10.0 mi Calm Calm - N/A   Clear
8:55 AM 44.6 °F 43.1 °F 24.8 °F 46% 30.40 in 10.0 mi WSW 3.5 mph - N/A   Clear
9:15 AM 46.4 °F 45.2 °F 23.0 °F 40% 30.40 in 10.0 mi West 3.5 mph - N/A   Clear
9:35 AM 48.2 °F - 21.2 °F 34% 30.40 in 10.0 mi Calm Calm - N/A   Clear
9:55 AM 48.2 °F - 21.2 °F 34% 30.39 in 10.0 mi WNW 5.8 mph - N/A   Clear
10:15 AM 50.0 °F - 23.0 °F 35% 30.39 in 10.0 mi SW 3.5 mph - N/A   Clear
10:35 AM 51.8 °F - 21.2 °F 30% 30.38 in 10.0 mi SW 6.9 mph - N/A   Clear
10:55 AM 51.8 °F - 23.0 °F 33% 30.38 in 10.0 mi WSW 6.9 mph - N/A   Clear
11:15 AM 53.6 °F - 23.0 °F 30% 30.37 in 10.0 mi SW 5.8 mph - N/A   Clear
11:35 AM 55.4 °F - 23.0 °F 29% 30.37 in 10.0 mi NW 5.8 mph - N/A   Clear
11:55 AM 55.4 °F - 21.2 °F 26% 30.36 in 10.0 mi NW 6.9 mph - N/A   Clear
12:15 PM 57.2 °F - 21.2 °F 25% 30.35 in 10.0 mi NW 3.5 mph - N/A   Clear
1:15 PM 59.0 °F - 23.0 °F 25% 30.33 in 10.0 mi NNW 3.5 mph 19.6 mph N/A   Partly Cloudy
1:35 PM 60.8 °F - 23.0 °F 23% 30.32 in 10.0 mi West 13.8 mph 17.3 mph N/A   Scattered Clouds
1:55 PM 60.8 °F - 21.2 °F 22% 30.32 in 10.0 mi WSW 6.9 mph - N/A   Mostly Cloudy
2:15 PM 60.8 °F - 23.0 °F 23% 30.32 in 10.0 mi WSW 4.6 mph 16.1 mph N/A   Scattered Clouds
2:35 PM 62.6 °F - 23.0 °F 22% 30.31 in 10.0 mi NNE 8.1 mph 16.1 mph N/A   Mostly Cloudy
2:55 PM 62.6 °F - 24.8 °F 24% 30.30 in 10.0 mi West 10.4 mph - N/A   Mostly Cloudy
3:15 PM 60.8 °F - 21.2 °F 22% 30.30 in 10.0 mi SW 4.6 mph - N/A   Overcast
3:35 PM 60.8 °F - 21.2 °F 22% 30.29 in 10.0 mi West 5.8 mph - N/A   Overcast
3:55 PM 62.6 °F - 23.0 °F 22% 30.28 in 10.0 mi NNE 4.6 mph - N/A   Overcast
4:15 PM 60.8 °F - 23.0 °F 23% 30.28 in 10.0 mi Calm Calm - N/A   Overcast
4:35 PM 64.4 °F - 24.8 °F 22% 30.27 in 10.0 mi ESE 6.9 mph - N/A   Overcast
4:55 PM 60.8 °F - 23.0 °F 23% 30.27 in 10.0 mi SSE 6.9 mph - N/A   Overcast
5:15 PM 60.8 °F - 23.0 °F 23% 30.27 in 10.0 mi SE 6.9 mph - N/A   Overcast
5:35 PM 64.4 °F - 24.8 °F 22% 30.27 in 10.0 mi ESE 4.6 mph - N/A   Mostly Cloudy
5:55 PM 64.4 °F - 21.2 °F 19% 30.27 in 10.0 mi NW 6.9 mph - N/A   Overcast
6:15 PM 64.4 °F - 21.2 °F 19% 30.26 in 10.0 mi North 5.8 mph - N/A   Scattered Clouds
6:35 PM 62.6 °F - 21.2 °F 20% 30.26 in 10.0 mi NNW 10.4 mph - N/A   Mostly Cloudy
6:55 PM 62.6 °F - 21.2 °F 20% 30.26 in 10.0 mi NNW 6.9 mph - N/A   Scattered Clouds
7:15 PM 59.0 °F - 24.8 °F 27% 30.26 in 10.0 mi NNW 6.9 mph - N/A   Scattered Clouds
7:35 PM 57.2 °F - 24.8 °F 29% 30.27 in 10.0 mi North 6.9 mph - N/A   Scattered Clouds
7:55 PM 57.2 °F - 24.8 °F 29% 30.28 in 10.0 mi NNE 5.8 mph - N/A   Mostly Cloudy
8:15 PM 55.4 °F - 23.0 °F 29% 30.28 in 10.0 mi NNE 6.9 mph - N/A   Overcast
8:35 PM 55.4 °F - 23.0 °F 29% 30.29 in 10.0 mi NNE 5.8 mph - N/A   Overcast
8:55 PM 53.6 °F - 24.8 °F 33% 30.29 in 10.0 mi NNE 5.8 mph - N/A   Mostly Cloudy
9:15 PM 51.8 °F - 24.8 °F 35% 30.30 in 10.0 mi NE 4.6 mph - N/A   Overcast
9:35 PM 51.8 °F - 26.6 °F 38% 30.31 in 10.0 mi NE 6.9 mph - N/A   Overcast
9:55 PM 51.8 °F - 28.4 °F 41% 30.32 in 10.0 mi NNE 4.6 mph - N/A   Overcast
10:15 PM 51.8 °F - 24.8 °F 35% 30.32 in 10.0 mi Calm Calm - N/A   Overcast
10:35 PM 50.0 °F - 26.6 °F 40% 30.32 in 10.0 mi Calm Calm - N/A   Mostly Cloudy
10:55 PM 51.8 °F - 24.8 °F 35% 30.32 in 10.0 mi Calm Calm - N/A   Overcast
11:15 PM 51.8 °F - 26.6 °F 38% 30.33 in 10.0 mi Calm Calm - N/A   Overcast
11:35 PM 50.0 °F - 26.6 °F 40% 30.33 in 10.0 mi Calm Calm - N/A   Overcast
11:55 PM 48.2 °F - 26.6 °F 43% 30.33 in 10.0 mi WNW 4.6 mph - N/A   Mostly Cloudy